When you browse on this site, cookies collect data to enhance your experience and personalize the content and advertising you see.
Visit our Privacy Policy to learn more. By continuing to use the site, you agree to this use of cookies and data.
  • In Austria
  • List of Countries
  • For 7 days
  • Water Temperature
  • Satellite Maps
  • Weather Map
  • News
  • Weather Widgets
  • user-avatar
    Login

    Hourly Weather Boma

    Today, 12 December, Wednesday

    Time Temperature Precipitation Wind Pressure Humidity
    00:00 +21°C° 0 mm 0 mps 701 mmHg 45%
    01:00 +20°C° 0 mm 0 mps 702 mmHg 47%
    02:00 +20°C° 0 mm 0 mps 701 mmHg 47%
    03:00 +19°C° 0 mm 0 mps 701 mmHg 47%
    04:00 +19°C° 0 mm 0 mps 701 mmHg 47%
    05:00 +19°C° 0 mm 0 mps 701 mmHg 46%
    06:00 +19°C° 0 mm 0 mps 702 mmHg 46%
    07:00 +20°C° 0 mm 0 mps 702 mmHg 46%
    08:00 +26°C° 0 mm 1 mps 702 mmHg 38%
    09:00 +29°C° 0 mm 1 mps 703 mmHg 30%
    10:00 +32°C° 0 mm 1 mps 703 mmHg 22%
    11:00 +34°C° 0 mm 1 mps 703 mmHg 20%
    12:00 +36°C° 0 mm 2 mps 702 mmHg 18%
    13:00 +37°C° 0 mm 2 mps 702 mmHg 16%
    14:00 +37°C° 0 mm 2 mps 701 mmHg 17%
    15:00 +36°C° 0 mm 1 mps 700 mmHg 17%
    16:00 +36°C° 0 mm 1 mps 700 mmHg 18%
    17:00 +33°C° 0 mm 1 mps 700 mmHg 23%
    18:00 +29°C° 0 mm 0 mps 700 mmHg 27%
    19:00 +26°C° 0 mm 0 mps 699 mmHg 32%
    20:00 +25°C° 0 mm 0 mps 700 mmHg 33%
    21:00 +24°C° 0 mm 0 mps 701 mmHg 34%
    22:00 +26°C° 0 mm 1 mps 701 mmHg 36%
    23:00 +23°C° 0 mm 0 mps 701 mmHg 37%

    Tomorrow, 13 December, Thursday

    Time Temperature Precipitation Wind Pressure Humidity
    00:00 +22°C° 0 mm 0 mps 701 mmHg 38%
    01:00 +21°C° 0 mm 0 mps 701 mmHg 39%
    02:00 +21°C° 0 mm 0 mps 701 mmHg 40%
    03:00 +20°C° 0 mm 0 mps 701 mmHg 42%
    04:00 +20°C° 0 mm 0 mps 701 mmHg 43%
    05:00 +20°C° 0 mm 0 mps 701 mmHg 46%
    06:00 +20°C° 0 mm 0 mps 701 mmHg 49%
    07:00 +20°C° 0 mm 0 mps 702 mmHg 52%
    08:00 +24°C° 0 mm 0 mps 702 mmHg 44%
    09:00 +27°C° 0 mm 0 mps 703 mmHg 35%
    10:00 +33°C° 0 mm 1 mps 704 mmHg 27%
    11:00 +34°C° 0 mm 1 mps 703 mmHg 24%
    12:00 +35°C° 0 mm 1 mps 702 mmHg 20%
    13:00 +38°C° 0 mm 2 mps 702 mmHg 17%
    14:00 +38°C° 0 mm 2 mps 701 mmHg 16%
    15:00 +37°C° 0 mm 1 mps 700 mmHg 16%
    16:00 +37°C° 0 mm 1 mps 700 mmHg 16%
    17:00 +34°C° 0 mm 1 mps 700 mmHg 20%
    18:00 +31°C° 0 mm 1 mps 700 mmHg 24%
    19:00 +26°C° 0 mm 0 mps 700 mmHg 28%
    20:00 +25°C° 0 mm 0 mps 700 mmHg 30%
    21:00 +24°C° 0 mm 0 mps 701 mmHg 31%
    22:00 +25°C° 0 mm 1 mps 702 mmHg 33%
    23:00 +23°C° 0 mm 0 mps 701 mmHg 34%

    Day after tomorrow, 14 December, Friday

    Time Temperature Precipitation Wind Pressure Humidity
    00:00 +22°C° 0 mm 0 mps 701 mmHg 35%
    01:00 +21°C° 0 mm 0 mps 701 mmHg 37%
    02:00 +21°C° 0 mm 0 mps 701 mmHg 39%
    03:00 +20°C° 0 mm 0 mps 701 mmHg 42%
    04:00 +19°C° 0 mm 0 mps 701 mmHg 45%
    05:00 +20°C° 0 mm 0 mps 701 mmHg 48%
    06:00 +20°C° 0 mm 0 mps 701 mmHg 51%
    07:00 +20°C° 0 mm 0 mps 702 mmHg 54%
    08:00 +24°C° 0 mm 0 mps 703 mmHg 44%
    09:00 +29°C° 0 mm 1 mps 703 mmHg 33%
    10:00 +33°C° 0 mm 1 mps 704 mmHg 23%
    11:00 +35°C° 0 mm 1 mps 703 mmHg 20%
    12:00 +37°C° 0 mm 2 mps 702 mmHg 16%
    13:00 +39°C° 0 mm 2 mps 701 mmHg 13%
    14:00 +39°C° 0 mm 2 mps 701 mmHg 13%
    15:00 +39°C° 0 mm 2 mps 700 mmHg 13%
    16:00 +39°C° 0 mm 1 mps 699 mmHg 13%
    17:00 +35°C° 0 mm 1 mps 700 mmHg 17%
    18:00 +32°C° 0 mm 1 mps 700 mmHg 20%
    19:00 +27°C° 0 mm 0 mps 700 mmHg 24%
    20:00 +28°C° 0 mm 1 mps 701 mmHg 25%
    21:00 +27°C° 0 mm 1 mps 701 mmHg 27%
    22:00 +26°C° 0 mm 1 mps 702 mmHg 28%
    23:00 +25°C° 0 mm 1 mps 701 mmHg 30%

    15 December, Saturday

    Time Temperature Precipitation Wind Pressure Humidity
    00:00 +24°C° 0 mm 1 mps 701 mmHg 32%
    01:00 +24°C° 0 mm 1 mps 701 mmHg 34%
    02:00 +23°C° 0 mm 1 mps 701 mmHg 42%
    03:00 +22°C° 0 mm 1 mps 700 mmHg 50%
    04:00 +22°C° 0 mm 1 mps 700 mmHg 58%
    05:00 +22°C° 0 mm 1 mps 701 mmHg 63%
    06:00 +22°C° 0 mm 1 mps 701 mmHg 68%
    07:00 +23°C° 0 mm 1 mps 702 mmHg 72%
    08:00 +26°C° 0 mm 1 mps 702 mmHg 61%
    09:00 +29°C° 0 mm 1 mps 703 mmHg 50%
    10:00 +32°C° 0 mm 1 mps 703 mmHg 39%
    11:00 +34°C° 0 mm 1 mps 703 mmHg 31%
    12:00 +36°C° 0 mm 1 mps 702 mmHg 24%
    13:00 +39°C° 0 mm 1 mps 701 mmHg 16%
    14:00 +39°C° 0 mm 1 mps 701 mmHg 16%
    15:00 +39°C° 0 mm 1 mps 700 mmHg 15%
    16:00 +37°C° 0 mm 1 mps 699 mmHg 14%
    17:00 +34°C° 0 mm 1 mps 699 mmHg 19%
    18:00 +31°C° 0 mm 1 mps 699 mmHg 24%
    19:00 +26°C° 0 mm 0 mps 700 mmHg 28%
    20:00 +25°C° 0 mm 0 mps 700 mmHg 31%
    21:00 +24°C° 0 mm 0 mps 701 mmHg 33%
    22:00 +23°C° 0 mm 0 mps 701 mmHg 36%
    23:00 +25°C° 0 mm 1 mps 701 mmHg 40%

    16 December, Sunday

    Time Temperature Precipitation Wind Pressure Humidity
    00:00 +24°C° 0 mm 1 mps 701 mmHg 43%
    01:00 +23°C° 0 mm 1 mps 700 mmHg 47%
    02:00 +23°C° 0 mm 1 mps 700 mmHg 55%
    03:00 +22°C° 0 mm 1 mps 700 mmHg 63%
    04:00 +22°C° 0 mm 1 mps 700 mmHg 71%
    05:00 +22°C° 0 mm 1 mps 700 mmHg 76%
    06:00 +22°C° 0 mm 1 mps 701 mmHg 80%
    07:00 +20°C° 0 mm 0 mps 701 mmHg 84%
    08:00 +24°C° 0 mm 0 mps 702 mmHg 68%
    09:00 +28°C° 0 mm 0 mps 703 mmHg 53%
    10:00 +31°C° 0 mm 0 mps 704 mmHg 37%
    11:00 +34°C° 0 mm 1 mps 703 mmHg 31%
    12:00 +36°C° 0 mm 1 mps 702 mmHg 24%
    13:00 +38°C° 0 mm 2 mps 701 mmHg 18%
    14:00 +37°C° 0 mm 1 mps 700 mmHg 17%
    15:00 +37°C° 0 mm 1 mps 700 mmHg 16%
    16:00 +37°C° 0 mm 1 mps 699 mmHg 15%
    17:00 +34°C° 0 mm 1 mps 699 mmHg 19%
    18:00 +31°C° 0 mm 1 mps 699 mmHg 24%
    19:00 +26°C° 0 mm 0 mps 699 mmHg 28%
    20:00 +25°C° 0 mm 0 mps 700 mmHg 29%
    21:00 +24°C° 0 mm 0 mps 700 mmHg 30%
    22:00 +26°C° 0 mm 1 mps 701 mmHg 32%
    23:00 +25°C° 0 mm 1 mps 701 mmHg 33%

    17 December, Monday

    Time Temperature Precipitation Wind Pressure Humidity
    00:00 +22°C° 0 mm 0 mps 700 mmHg 35%
    01:00 +21°C° 0 mm 0 mps 700 mmHg 36%
    02:00 +23°C° 0 mm 1 mps 700 mmHg 44%
    03:00 +22°C° 0 mm 1 mps 700 mmHg 52%
    04:00 +21°C° 0 mm 1 mps 700 mmHg 60%
    05:00 +22°C° 0 mm 1 mps 700 mmHg 65%
    06:00 +22°C° 0 mm 1 mps 701 mmHg 69%
    07:00 +22°C° 0 mm 1 mps 701 mmHg 74%
    08:00 +25°C° 0 mm 1 mps 702 mmHg 60%
    09:00 +29°C° 0 mm 1 mps 703 mmHg 45%
    10:00 +33°C° 0 mm 1 mps 703 mmHg 30%
    11:00 +34°C° 0 mm 1 mps 703 mmHg 25%
    12:00 +36°C° 0 mm 1 mps 702 mmHg 20%
    13:00 +37°C° 0 mm 1 mps 701 mmHg 16%
    14:00 +37°C° 0 mm 1 mps 701 mmHg 15%
    15:00 +36°C° 0 mm 1 mps 700 mmHg 15%
    16:00 +36°C° 0 mm 1 mps 699 mmHg 15%
    17:00 +33°C° 0 mm 1 mps 699 mmHg 19%
    18:00 +28°C° 0 mm 0 mps 699 mmHg 23%
    19:00 +25°C° 0 mm 0 mps 700 mmHg 26%
    20:00 +25°C° 0 mm 0 mps 700 mmHg 28%
    21:00 +26°C° 0 mm 1 mps 700 mmHg 29%
    22:00 +25°C° 0 mm 1 mps 701 mmHg 30%
    23:00 +25°C° 0 mm 1 mps 701 mmHg 31%
    Show more